Year,Month,Day,Hour,Minute,Value (Times are PST for temperature in C)
2009,09,23,00,00,13.60
2009,09,23,00,01,13.60
2009,09,23,00,02,13.60
2009,09,23,00,03,13.50
2009,09,23,00,04,13.50
2009,09,23,00,05,13.50
2009,09,23,00,06,13.50
2009,09,23,00,07,13.40
2009,09,23,00,08,13.40
2009,09,23,00,09,13.40
2009,09,23,00,10,13.40
2009,09,23,00,11,13.40
2009,09,23,00,12,13.30
2009,09,23,00,13,13.30
2009,09,23,00,14,13.30
2009,09,23,00,15,13.30
2009,09,23,00,16,13.30
2009,09,23,00,17,13.30
2009,09,23,00,18,13.20
2009,09,23,00,19,13.20
2009,09,23,00,20,13.20
2009,09,23,00,21,13.20
2009,09,23,00,22,13.20
2009,09,23,00,23,13.20
2009,09,23,00,24,13.20
2009,09,23,00,25,13.20
2009,09,23,00,26,13.20
2009,09,23,00,27,13.20
2009,09,23,00,28,13.20
2009,09,23,00,29,13.10
2009,09,23,00,30,13.10
2009,09,23,00,31,13.10
2009,09,23,00,32,13.10
2009,09,23,00,33,13.10
2009,09,23,00,34,13.10
2009,09,23,00,35,13.10
2009,09,23,00,36,13.10
2009,09,23,00,37,13.10
2009,09,23,00,38,13.10
2009,09,23,00,39,13.00
2009,09,23,00,40,13.00
2009,09,23,00,41,13.00
2009,09,23,00,42,13.00
2009,09,23,00,43,12.90
2009,09,23,00,44,12.90
2009,09,23,00,45,12.90
2009,09,23,00,46,12.90
2009,09,23,00,47,12.90
2009,09,23,00,48,12.90
2009,09,23,00,49,12.90
2009,09,23,00,50,12.80
2009,09,23,00,51,12.80
2009,09,23,00,52,12.80
2009,09,23,00,53,12.80
2009,09,23,00,54,12.80
2009,09,23,00,55,12.80
2009,09,23,00,56,12.80
2009,09,23,00,57,12.80
2009,09,23,00,58,12.80
2009,09,23,00,59,12.70
2009,09,23,01,00,12.70
2009,09,23,01,01,12.70
2009,09,23,01,02,12.70
2009,09,23,01,03,12.70
2009,09,23,01,04,12.70
2009,09,23,01,05,12.70
2009,09,23,01,06,12.70
2009,09,23,01,07,12.70
2009,09,23,01,08,12.70
2009,09,23,01,09,12.60
2009,09,23,01,10,12.60
2009,09,23,01,11,12.60
2009,09,23,01,12,12.60
2009,09,23,01,13,12.60
2009,09,23,01,14,12.60
2009,09,23,01,15,12.50
2009,09,23,01,16,12.50
2009,09,23,01,17,12.50
2009,09,23,01,18,12.50
2009,09,23,01,19,12.50
2009,09,23,01,20,12.40
2009,09,23,01,21,12.40
2009,09,23,01,22,12.40
2009,09,23,01,23,12.40
2009,09,23,01,24,12.30
2009,09,23,01,25,12.30
2009,09,23,01,26,12.30
2009,09,23,01,27,12.30
2009,09,23,01,28,12.30
2009,09,23,01,29,12.30
2009,09,23,01,30,12.30
2009,09,23,01,31,12.30
2009,09,23,01,32,12.30
2009,09,23,01,33,12.30
2009,09,23,01,34,12.30
2009,09,23,01,35,12.30
2009,09,23,01,36,12.30
2009,09,23,01,37,12.30
2009,09,23,01,38,12.30
2009,09,23,01,39,12.30
2009,09,23,01,40,12.30
2009,09,23,01,41,12.30
2009,09,23,01,42,12.30
2009,09,23,01,43,12.20
2009,09,23,01,44,12.20
2009,09,23,01,45,12.20
2009,09,23,01,46,12.20
2009,09,23,01,47,12.20
2009,09,23,01,48,12.20
2009,09,23,01,49,12.20
2009,09,23,01,50,12.20
2009,09,23,01,51,12.20
2009,09,23,01,52,12.20
2009,09,23,01,53,12.20
2009,09,23,01,54,12.20
2009,09,23,01,55,12.10
2009,09,23,01,56,12.10
2009,09,23,01,57,12.10
2009,09,23,01,58,12.10
2009,09,23,01,59,12.10
2009,09,23,02,00,12.10
2009,09,23,02,01,12.10
2009,09,23,02,02,12.10
2009,09,23,02,03,12.00
2009,09,23,02,04,12.00
2009,09,23,02,05,12.00
2009,09,23,02,06,12.00
2009,09,23,02,07,12.00
2009,09,23,02,08,12.00
2009,09,23,02,09,11.90
2009,09,23,02,10,11.90
2009,09,23,02,11,11.90
2009,09,23,02,12,11.90
2009,09,23,02,13,11.90
2009,09,23,02,14,11.90
2009,09,23,02,15,11.90
2009,09,23,02,16,11.90
2009,09,23,02,17,11.90
2009,09,23,02,18,11.90
2009,09,23,02,19,11.90
2009,09,23,02,20,11.90
2009,09,23,02,21,11.90
2009,09,23,02,22,11.80
2009,09,23,02,23,11.80
2009,09,23,02,24,11.80
2009,09,23,02,25,11.80
2009,09,23,02,26,11.80
2009,09,23,02,27,11.80
2009,09,23,02,28,11.80
2009,09,23,02,29,11.80
2009,09,23,02,30,11.80
2009,09,23,02,31,11.80
2009,09,23,02,32,11.80
2009,09,23,02,33,11.80
2009,09,23,02,34,11.80
2009,09,23,02,35,11.80
2009,09,23,02,36,11.80
2009,09,23,02,37,11.80
2009,09,23,02,38,11.80
2009,09,23,02,39,11.80
2009,09,23,02,40,11.80
2009,09,23,02,41,11.80
2009,09,23,02,42,11.80
2009,09,23,02,43,11.70
2009,09,23,02,44,11.70
2009,09,23,02,45,11.70
2009,09,23,02,46,11.70
2009,09,23,02,47,11.70
2009,09,23,02,48,11.70
2009,09,23,02,49,11.70
2009,09,23,02,50,11.70
2009,09,23,02,51,11.70
2009,09,23,02,52,11.70
2009,09,23,02,53,11.70
2009,09,23,02,54,11.70
2009,09,23,02,55,11.70
2009,09,23,02,56,11.70
2009,09,23,02,57,11.70
2009,09,23,02,58,11.70
2009,09,23,02,59,11.70
2009,09,23,03,00,11.70
2009,09,23,03,01,11.70
2009,09,23,03,02,11.70
2009,09,23,03,03,11.60
2009,09,23,03,04,11.60
2009,09,23,03,05,11.60
2009,09,23,03,06,11.60
2009,09,23,03,07,11.60
2009,09,23,03,08,11.60
2009,09,23,03,09,11.60
2009,09,23,03,10,11.60
2009,09,23,03,11,11.60
2009,09,23,03,12,11.60
2009,09,23,03,13,11.60
2009,09,23,03,14,11.60
2009,09,23,03,15,11.60
2009,09,23,03,16,11.60
2009,09,23,03,17,11.60
2009,09,23,03,18,11.50
2009,09,23,03,19,11.50
2009,09,23,03,20,11.50
2009,09,23,03,21,11.50
2009,09,23,03,22,11.50
2009,09,23,03,23,11.50
2009,09,23,03,24,11.50
2009,09,23,03,25,11.50
2009,09,23,03,26,11.40
2009,09,23,03,27,11.40
2009,09,23,03,28,11.40
2009,09,23,03,29,11.40
2009,09,23,03,30,11.40
2009,09,23,03,31,11.40
2009,09,23,03,32,11.40
2009,09,23,03,33,11.40
2009,09,23,03,34,11.40
2009,09,23,03,35,11.40
2009,09,23,03,36,11.40
2009,09,23,03,37,11.40
2009,09,23,03,38,11.40
2009,09,23,03,39,11.40
2009,09,23,03,40,11.40
2009,09,23,03,41,11.40
2009,09,23,03,42,11.40
2009,09,23,03,43,11.40
2009,09,23,03,44,11.40
2009,09,23,03,45,11.40
2009,09,23,03,46,11.40
2009,09,23,03,47,11.40
2009,09,23,03,48,11.40
2009,09,23,03,49,11.40
2009,09,23,03,50,11.40
2009,09,23,03,51,11.40
2009,09,23,03,52,11.40
2009,09,23,03,53,11.40
2009,09,23,03,54,11.40
2009,09,23,03,55,11.40
2009,09,23,03,56,11.40
2009,09,23,03,57,11.40
2009,09,23,03,58,11.40
2009,09,23,03,59,11.40
2009,09,23,04,00,11.30
2009,09,23,04,01,11.30
2009,09,23,04,02,11.30
2009,09,23,04,03,11.30
2009,09,23,04,04,11.30
2009,09,23,04,05,11.30
2009,09,23,04,06,11.30
2009,09,23,04,07,11.30
2009,09,23,04,08,11.30
2009,09,23,04,09,11.30
2009,09,23,04,10,11.30
2009,09,23,04,11,11.30
2009,09,23,04,12,11.30
2009,09,23,04,13,11.30
2009,09,23,04,14,11.30
2009,09,23,04,15,11.30
2009,09,23,04,16,11.30
2009,09,23,04,17,11.30
2009,09,23,04,18,11.30
2009,09,23,04,19,11.30
2009,09,23,04,20,11.30
2009,09,23,04,21,11.30
2009,09,23,04,22,11.20
2009,09,23,04,23,11.20
2009,09,23,04,24,11.20
2009,09,23,04,25,11.20
2009,09,23,04,26,11.20
2009,09,23,04,27,11.20
2009,09,23,04,28,11.20
2009,09,23,04,29,11.20
2009,09,23,04,30,11.20
2009,09,23,04,31,11.20
2009,09,23,04,32,11.20
2009,09,23,04,33,11.20
2009,09,23,04,34,11.20
2009,09,23,04,35,11.20
2009,09,23,04,36,11.20
2009,09,23,04,37,11.20
2009,09,23,04,38,11.10
2009,09,23,04,39,11.10
2009,09,23,04,40,11.10
2009,09,23,04,41,11.10
2009,09,23,04,42,11.10
2009,09,23,04,43,11.10
2009,09,23,04,44,11.10
2009,09,23,04,45,11.10
2009,09,23,04,46,11.10
2009,09,23,04,47,11.10
2009,09,23,04,48,11.10
2009,09,23,04,49,11.00
2009,09,23,04,50,11.00
2009,09,23,04,51,11.00
2009,09,23,04,52,11.00
2009,09,23,04,53,11.00
2009,09,23,04,54,11.00
2009,09,23,04,55,11.00
2009,09,23,04,56,11.00
2009,09,23,04,57,11.00
2009,09,23,04,58,11.00
2009,09,23,04,59,11.00
2009,09,23,05,00,11.00
2009,09,23,05,01,11.00
2009,09,23,05,02,11.00
2009,09,23,05,03,11.00
2009,09,23,05,04,11.00
2009,09,23,05,05,11.00
2009,09,23,05,06,11.00
2009,09,23,05,07,11.00
2009,09,23,05,08,11.00
2009,09,23,05,09,10.90
2009,09,23,05,10,11.00
2009,09,23,05,11,10.90
2009,09,23,05,12,10.90
2009,09,23,05,13,10.90
2009,09,23,05,14,10.90
2009,09,23,05,15,10.90
2009,09,23,05,16,10.90
2009,09,23,05,17,10.90
2009,09,23,05,18,10.90
2009,09,23,05,19,10.90
2009,09,23,05,20,10.90
2009,09,23,05,21,10.90
2009,09,23,05,22,10.80
2009,09,23,05,23,10.80
2009,09,23,05,24,10.80
2009,09,23,05,25,10.80
2009,09,23,05,26,10.80
2009,09,23,05,27,10.80
2009,09,23,05,28,10.80
2009,09,23,05,29,10.80
2009,09,23,05,30,10.80
2009,09,23,05,31,10.80
2009,09,23,05,32,10.80
2009,09,23,05,33,10.80
2009,09,23,05,34,10.80
2009,09,23,05,35,10.80
2009,09,23,05,36,10.70
2009,09,23,05,37,10.70
2009,09,23,05,38,10.70
2009,09,23,05,39,10.70
2009,09,23,05,40,10.70
2009,09,23,05,41,10.70
2009,09,23,05,42,10.70
2009,09,23,05,43,10.60
2009,09,23,05,44,10.60
2009,09,23,05,45,10.60
2009,09,23,05,46,10.60
2009,09,23,05,47,10.60
2009,09,23,05,48,10.60
2009,09,23,05,49,10.60
2009,09,23,05,50,10.60
2009,09,23,05,51,10.60
2009,09,23,05,52,10.60
2009,09,23,05,53,10.60
2009,09,23,05,54,10.60
2009,09,23,05,55,10.60
2009,09,23,05,56,10.50
2009,09,23,05,57,10.50
2009,09,23,05,58,10.50
2009,09,23,05,59,10.50
2009,09,23,06,00,10.50
2009,09,23,06,01,10.50
2009,09,23,06,02,10.50
2009,09,23,06,03,10.50
2009,09,23,06,04,10.50
2009,09,23,06,05,10.50
2009,09,23,06,06,10.50
2009,09,23,06,07,10.50
2009,09,23,06,08,10.50
2009,09,23,06,09,10.40
2009,09,23,06,10,10.40
2009,09,23,06,11,10.40
2009,09,23,06,12,10.40
2009,09,23,06,13,10.40
2009,09,23,06,14,10.40
2009,09,23,06,15,10.40
2009,09,23,06,16,10.40
2009,09,23,06,17,10.40
2009,09,23,06,18,10.40
2009,09,23,06,19,10.40
2009,09,23,06,20,10.40
2009,09,23,06,21,10.40
2009,09,23,06,22,10.40
2009,09,23,06,23,10.40
2009,09,23,06,24,10.30
2009,09,23,06,25,10.30
2009,09,23,06,26,10.30
2009,09,23,06,27,10.30
2009,09,23,06,28,10.30
2009,09,23,06,29,10.30
2009,09,23,06,30,10.30
2009,09,23,06,31,10.20
2009,09,23,06,32,10.20
2009,09,23,06,33,10.20
2009,09,23,06,34,10.20
2009,09,23,06,35,10.20
2009,09,23,06,36,10.20
2009,09,23,06,37,10.20
2009,09,23,06,38,10.20
2009,09,23,06,39,10.20
2009,09,23,06,40,10.20
2009,09,23,06,41,10.20
2009,09,23,06,42,10.10
2009,09,23,06,43,10.10
2009,09,23,06,44,10.10
2009,09,23,06,45,10.10
2009,09,23,06,46,10.10
2009,09,23,06,47,10.10
2009,09,23,06,48,10.10
2009,09,23,06,49,10.10
2009,09,23,06,50,10.10
2009,09,23,06,51,10.10
2009,09,23,06,52,10.10
2009,09,23,06,53,10.10
2009,09,23,06,54,10.10
2009,09,23,06,55,10.10
2009,09,23,06,56,10.10
2009,09,23,06,57,10.10
2009,09,23,06,58,10.10
2009,09,23,06,59,10.10
2009,09,23,07,00,10.00
2009,09,23,07,01,10.00
2009,09,23,07,02,10.00
2009,09,23,07,03,10.00
2009,09,23,07,04,10.00
2009,09,23,07,05,10.00
2009,09,23,07,06,10.00
2009,09,23,07,07,10.00
2009,09,23,07,08,10.00
2009,09,23,07,09,10.00
2009,09,23,07,10,10.00
2009,09,23,07,11,10.00
2009,09,23,07,12,10.00
2009,09,23,07,13,10.00
2009,09,23,07,14,10.00
2009,09,23,07,15,10.00
2009,09,23,07,16,10.00
2009,09,23,07,17,9.90
2009,09,23,07,18,9.90
2009,09,23,07,19,9.90
2009,09,23,07,20,9.90
2009,09,23,07,21,9.90
2009,09,23,07,22,9.90
2009,09,23,07,23,9.90
2009,09,23,07,24,9.90
2009,09,23,07,25,9.90
2009,09,23,07,26,9.90
2009,09,23,07,27,9.90
2009,09,23,07,28,10.00
2009,09,23,07,29,9.90
2009,09,23,07,30,9.90
2009,09,23,07,31,9.90
2009,09,23,07,32,10.00
2009,09,23,07,33,10.00
2009,09,23,07,34,10.00
2009,09,23,07,35,10.00
2009,09,23,07,36,10.10
2009,09,23,07,37,10.10
2009,09,23,07,38,10.10
2009,09,23,07,39,10.10
2009,09,23,07,40,10.10
2009,09,23,07,41,10.10
2009,09,23,07,42,10.20
2009,09,23,07,43,10.20
2009,09,23,07,44,10.20
2009,09,23,07,45,10.20
2009,09,23,07,46,10.20
2009,09,23,07,47,10.30
2009,09,23,07,48,10.30
2009,09,23,07,49,10.30
2009,09,23,07,50,10.30
2009,09,23,07,51,10.30
2009,09,23,07,52,10.40
2009,09,23,07,53,10.40
2009,09,23,07,54,10.50
2009,09,23,07,55,10.50
2009,09,23,07,56,10.50
2009,09,23,07,57,10.60
2009,09,23,07,58,10.60
2009,09,23,07,59,10.60
2009,09,23,08,00,10.70
2009,09,23,08,01,10.70
2009,09,23,08,02,10.70
2009,09,23,08,03,10.80
2009,09,23,08,04,10.80
2009,09,23,08,05,10.80
2009,09,23,08,06,10.90
2009,09,23,08,07,10.90
2009,09,23,08,08,10.90
2009,09,23,08,09,11.00
2009,09,23,08,10,11.10
2009,09,23,08,11,11.10
2009,09,23,08,12,11.20
2009,09,23,08,13,11.30
2009,09,23,08,14,11.30
2009,09,23,08,15,11.40
2009,09,23,08,16,11.40
2009,09,23,08,17,11.50
2009,09,23,08,18,11.50
2009,09,23,08,19,11.60
2009,09,23,08,20,11.60
2009,09,23,08,21,11.70
2009,09,23,08,22,11.70
2009,09,23,08,23,11.80
2009,09,23,08,24,11.80
2009,09,23,08,25,11.90
2009,09,23,08,26,12.00
2009,09,23,08,27,12.00
2009,09,23,08,28,12.10
2009,09,23,08,29,12.20
2009,09,23,08,30,12.30
2009,09,23,08,31,12.30
2009,09,23,08,32,12.40
2009,09,23,08,33,12.50
2009,09,23,08,34,12.50
2009,09,23,08,35,12.60
2009,09,23,08,36,12.70
2009,09,23,08,37,12.80
2009,09,23,08,38,12.80
2009,09,23,08,39,12.90
2009,09,23,08,40,13.10
2009,09,23,08,41,13.10
2009,09,23,08,42,13.20
2009,09,23,08,43,13.30
2009,09,23,08,44,13.40
2009,09,23,08,45,13.50
2009,09,23,08,46,13.60
2009,09,23,08,47,13.60
2009,09,23,08,48,13.70
2009,09,23,08,49,13.70
2009,09,23,08,50,13.80
2009,09,23,08,51,13.80
2009,09,23,08,52,13.90
2009,09,23,08,53,14.00
2009,09,23,08,54,14.10
2009,09,23,08,55,14.20
2009,09,23,08,56,14.20
2009,09,23,08,57,14.30
2009,09,23,08,58,14.40
2009,09,23,08,59,14.50
2009,09,23,09,00,14.60
2009,09,23,09,01,14.80
2009,09,23,09,02,14.90
2009,09,23,09,03,15.00
2009,09,23,09,04,15.00
2009,09,23,09,05,15.20
2009,09,23,09,06,15.30
2009,09,23,09,07,15.40
2009,09,23,09,08,15.50
2009,09,23,09,09,15.60
2009,09,23,09,10,15.70
2009,09,23,09,11,15.80
2009,09,23,09,12,16.00
2009,09,23,09,13,16.10
2009,09,23,09,14,16.20
2009,09,23,09,15,16.30
2009,09,23,09,16,16.40
2009,09,23,09,17,16.50
2009,09,23,09,18,16.60
2009,09,23,09,19,16.70
2009,09,23,09,20,16.80
2009,09,23,09,21,16.90
2009,09,23,09,22,17.00
2009,09,23,09,23,17.10
2009,09,23,09,24,17.20
2009,09,23,09,25,17.30
2009,09,23,09,26,17.40
2009,09,23,09,27,17.50
2009,09,23,09,28,17.60
2009,09,23,09,29,17.70
2009,09,23,09,30,17.80
2009,09,23,09,31,17.80
2009,09,23,09,32,17.90
2009,09,23,09,33,18.00
2009,09,23,09,34,18.10
2009,09,23,09,35,18.20
2009,09,23,09,36,18.40
2009,09,23,09,37,18.40
2009,09,23,09,38,18.50
2009,09,23,09,39,18.70
2009,09,23,09,40,18.80
2009,09,23,09,41,18.80
2009,09,23,09,42,18.90
2009,09,23,09,43,19.00
2009,09,23,09,44,19.20
2009,09,23,09,45,19.30
2009,09,23,09,46,19.40
2009,09,23,09,47,19.50
2009,09,23,09,48,19.60
2009,09,23,09,49,19.70
2009,09,23,09,50,19.90
2009,09,23,09,51,20.00
2009,09,23,09,52,20.10
2009,09,23,09,53,20.20
2009,09,23,09,54,20.30
2009,09,23,09,55,20.40
2009,09,23,09,56,20.40
2009,09,23,09,57,20.40
2009,09,23,09,58,20.40
2009,09,23,09,59,20.40
2009,09,23,10,00,20.30
2009,09,23,10,01,20.30
2009,09,23,10,02,20.40
2009,09,23,10,03,20.40
2009,09,23,10,04,20.40
2009,09,23,10,05,20.40
2009,09,23,10,06,20.40
2009,09,23,10,07,20.40
2009,09,23,10,08,20.40
2009,09,23,10,09,20.40
2009,09,23,10,10,20.30
2009,09,23,10,11,20.20
2009,09,23,10,12,20.20
2009,09,23,10,13,20.20
2009,09,23,10,14,20.10
2009,09,23,10,15,20.00
2009,09,23,10,16,19.90
2009,09,23,10,17,19.80
2009,09,23,10,18,19.70
2009,09,23,10,19,19.70
2009,09,23,10,20,19.70
2009,09,23,10,21,19.70
2009,09,23,10,22,19.80
2009,09,23,10,23,19.90
2009,09,23,10,24,19.90
2009,09,23,10,25,20.10
2009,09,23,10,26,20.20
2009,09,23,10,27,20.30
2009,09,23,10,28,20.40
2009,09,23,10,29,20.50
2009,09,23,10,30,20.60
2009,09,23,10,31,20.60
2009,09,23,10,32,20.60
2009,09,23,10,33,20.60
2009,09,23,10,34,20.60
2009,09,23,10,35,20.70
2009,09,23,10,36,20.70
2009,09,23,10,37,20.80
2009,09,23,10,38,20.80
2009,09,23,10,39,20.70
2009,09,23,10,40,20.70
2009,09,23,10,41,20.70
2009,09,23,10,42,20.80
2009,09,23,10,43,20.90
2009,09,23,10,44,20.90
2009,09,23,10,45,20.90
2009,09,23,10,46,21.00
2009,09,23,10,47,21.00
2009,09,23,10,48,20.90
2009,09,23,10,49,20.90
2009,09,23,10,50,20.90
2009,09,23,10,51,20.80
2009,09,23,10,52,20.80
2009,09,23,10,53,20.80
2009,09,23,10,54,20.80
2009,09,23,10,55,20.80
2009,09,23,10,56,20.70
2009,09,23,10,57,20.60
2009,09,23,10,58,20.50
2009,09,23,10,59,20.30
2009,09,23,11,00,20.20
2009,09,23,11,01,20.10
2009,09,23,11,02,20.10
2009,09,23,11,03,20.10
2009,09,23,11,04,20.10
2009,09,23,11,05,20.10
2009,09,23,11,06,20.10
2009,09,23,11,07,20.10
2009,09,23,11,08,20.20
2009,09,23,11,09,20.20
2009,09,23,11,10,20.20
2009,09,23,11,11,20.10
2009,09,23,11,12,20.00
2009,09,23,11,13,19.90
2009,09,23,11,14,19.90
2009,09,23,11,15,19.80
2009,09,23,11,16,19.80
2009,09,23,11,17,19.80
2009,09,23,11,18,19.80
2009,09,23,11,19,19.80
2009,09,23,11,20,19.90
2009,09,23,11,21,19.90
2009,09,23,11,22,20.00
2009,09,23,11,23,20.10
2009,09,23,11,24,20.20
2009,09,23,11,25,20.30
2009,09,23,11,26,20.30
2009,09,23,11,27,20.40
2009,09,23,11,28,20.50
2009,09,23,11,29,20.60
2009,09,23,11,30,20.60
2009,09,23,11,31,20.70
2009,09,23,11,32,20.70
2009,09,23,11,33,20.70
2009,09,23,11,34,20.70
2009,09,23,11,35,20.70
2009,09,23,11,36,20.80
2009,09,23,11,37,20.80
2009,09,23,11,38,20.90
2009,09,23,11,39,21.00
2009,09,23,11,40,21.20
2009,09,23,11,41,21.30
2009,09,23,11,42,21.40
2009,09,23,11,43,21.50
2009,09,23,11,44,21.60
2009,09,23,11,45,21.60
2009,09,23,11,46,21.60
2009,09,23,11,47,21.60
2009,09,23,11,48,21.60
2009,09,23,11,49,21.60
2009,09,23,11,50,21.60
2009,09,23,11,51,21.60
2009,09,23,11,52,21.60
2009,09,23,11,53,21.50
2009,09,23,11,54,21.50
2009,09,23,11,55,21.50
2009,09,23,11,56,21.50
2009,09,23,11,57,21.60
2009,09,23,11,58,21.60
2009,09,23,11,59,21.70
2009,09,23,12,00,21.80
2009,09,23,12,01,21.80
2009,09,23,12,02,21.80
2009,09,23,12,03,21.80
2009,09,23,12,04,21.90
2009,09,23,12,05,21.90
2009,09,23,12,06,22.00
2009,09,23,12,07,22.00
2009,09,23,12,08,22.00
2009,09,23,12,09,22.10
2009,09,23,12,10,22.10
2009,09,23,12,11,22.20
2009,09,23,12,12,22.30
2009,09,23,12,13,22.30
2009,09,23,12,14,22.20
2009,09,23,12,15,22.20
2009,09,23,12,16,22.20
2009,09,23,12,17,22.20
2009,09,23,12,18,22.20
2009,09,23,12,19,22.20
2009,09,23,12,20,22.20
2009,09,23,12,21,22.30
2009,09,23,12,22,22.30
2009,09,23,12,23,22.30
2009,09,23,12,24,22.40
2009,09,23,12,25,22.40
2009,09,23,12,26,22.40
2009,09,23,12,27,22.50
2009,09,23,12,28,22.50
2009,09,23,12,29,22.60
2009,09,23,12,30,22.70
2009,09,23,12,31,22.80
2009,09,23,12,32,22.90
2009,09,23,12,33,23.00
2009,09,23,12,34,23.10
2009,09,23,12,35,23.20
2009,09,23,12,36,23.20
2009,09,23,12,37,23.30
2009,09,23,12,38,23.30
2009,09,23,12,39,23.30
2009,09,23,12,40,23.30
2009,09,23,12,41,23.30
2009,09,23,12,42,23.40
2009,09,23,12,43,23.50
2009,09,23,12,44,23.50
2009,09,23,12,45,23.60
2009,09,23,12,46,23.70
2009,09,23,12,47,23.70
2009,09,23,12,48,23.70
2009,09,23,12,49,23.70
2009,09,23,12,50,23.70
2009,09,23,12,51,23.70
2009,09,23,12,52,23.80
2009,09,23,12,53,23.80
2009,09,23,12,54,23.90
2009,09,23,12,55,23.90
2009,09,23,12,56,23.90
2009,09,23,12,57,23.90
2009,09,23,12,58,23.80
2009,09,23,12,59,23.90
2009,09,23,13,00,24.00
2009,09,23,13,01,24.10
2009,09,23,13,02,24.10
2009,09,23,13,03,24.20
2009,09,23,13,04,24.20
2009,09,23,13,05,24.30
2009,09,23,13,06,24.30
2009,09,23,13,07,24.30
2009,09,23,13,08,24.30
2009,09,23,13,09,24.30
2009,09,23,13,10,24.30
2009,09,23,13,11,24.40
2009,09,23,13,12,24.40
2009,09,23,13,13,24.50
2009,09,23,13,14,24.50
2009,09,23,13,15,24.40
2009,09,23,13,16,24.50
2009,09,23,13,17,24.50
2009,09,23,13,18,24.50
2009,09,23,13,19,24.50
2009,09,23,13,20,24.40
2009,09,23,13,21,24.30
2009,09,23,13,22,24.20
2009,09,23,13,23,24.20
2009,09,23,13,24,24.20
2009,09,23,13,25,24.20
2009,09,23,13,26,24.30
2009,09,23,13,27,24.40
2009,09,23,13,28,24.40
2009,09,23,13,29,24.40
2009,09,23,13,30,24.50
2009,09,23,13,31,24.60
2009,09,23,13,32,24.60
2009,09,23,13,33,24.50
2009,09,23,13,34,24.50
2009,09,23,13,35,24.50
2009,09,23,13,36,24.50
2009,09,23,13,37,24.50
2009,09,23,13,38,24.50
2009,09,23,13,39,24.60
2009,09,23,13,40,24.50
2009,09,23,13,41,24.40
2009,09,23,13,42,24.30
2009,09,23,13,43,24.30
2009,09,23,13,44,24.30
2009,09,23,13,45,24.30
2009,09,23,13,46,24.30
2009,09,23,13,47,24.40
2009,09,23,13,48,24.40
2009,09,23,13,49,24.50
2009,09,23,13,50,24.50
2009,09,23,13,51,24.50
2009,09,23,13,52,24.50
2009,09,23,13,53,24.40
2009,09,23,13,54,24.30
2009,09,23,13,55,24.30
2009,09,23,13,56,24.30
2009,09,23,13,57,24.40
2009,09,23,13,58,24.40
2009,09,23,13,59,24.40
2009,09,23,14,00,24.40
2009,09,23,14,01,24.50
2009,09,23,14,02,24.60
2009,09,23,14,03,24.60
2009,09,23,14,04,24.60
2009,09,23,14,05,24.50
2009,09,23,14,06,24.60
2009,09,23,14,07,24.60
2009,09,23,14,08,24.70
2009,09,23,14,09,24.70
2009,09,23,14,10,24.60
2009,09,23,14,11,24.60
2009,09,23,14,12,24.60
2009,09,23,14,13,24.60
2009,09,23,14,14,24.60
2009,09,23,14,15,24.60
2009,09,23,14,16,24.70
2009,09,23,14,17,24.70
2009,09,23,14,18,24.70
2009,09,23,14,19,24.80
2009,09,23,14,20,24.80
2009,09,23,14,21,24.80
2009,09,23,14,22,24.80
2009,09,23,14,23,24.70
2009,09,23,14,24,24.60
2009,09,23,14,25,24.60
2009,09,23,14,26,24.60
2009,09,23,14,27,24.60
2009,09,23,14,28,24.70
2009,09,23,14,29,24.70
2009,09,23,14,30,24.70
2009,09,23,14,31,24.60
2009,09,23,14,32,24.60
2009,09,23,14,33,24.50
2009,09,23,14,34,24.40
2009,09,23,14,35,24.30
2009,09,23,14,36,24.20
2009,09,23,14,37,24.10
2009,09,23,14,38,24.00
2009,09,23,14,39,24.00
2009,09,23,14,40,24.00
2009,09,23,14,41,24.10
2009,09,23,14,42,24.10
2009,09,23,14,43,24.10
2009,09,23,14,44,24.10
2009,09,23,14,45,24.00
2009,09,23,14,46,24.00
2009,09,23,14,47,23.90
2009,09,23,14,48,23.80
2009,09,23,14,49,23.80
2009,09,23,14,50,23.80
2009,09,23,14,51,23.80
2009,09,23,14,52,23.80
2009,09,23,14,53,23.90
2009,09,23,14,54,23.90
2009,09,23,14,55,24.00
2009,09,23,14,56,24.10
2009,09,23,14,57,24.10
2009,09,23,14,58,24.10
2009,09,23,14,59,24.20
2009,09,23,15,00,24.30
2009,09,23,15,01,24.40
2009,09,23,15,02,24.40
2009,09,23,15,03,24.40
2009,09,23,15,04,24.40
2009,09,23,15,05,24.30
2009,09,23,15,06,24.40
2009,09,23,15,07,24.40
2009,09,23,15,08,24.40
2009,09,23,15,09,24.40
2009,09,23,15,10,24.40
2009,09,23,15,11,24.40
2009,09,23,15,12,24.40
2009,09,23,15,13,24.30
2009,09,23,15,14,24.30
2009,09,23,15,15,24.30
2009,09,23,15,16,24.30
2009,09,23,15,17,24.30
2009,09,23,15,18,24.30
2009,09,23,15,19,24.30
2009,09,23,15,20,24.30
2009,09,23,15,21,24.20
2009,09,23,15,22,24.20
2009,09,23,15,23,24.20
2009,09,23,15,24,24.20
2009,09,23,15,25,24.20
2009,09,23,15,26,24.20
2009,09,23,15,27,24.20
2009,09,23,15,28,24.20
2009,09,23,15,29,24.20
2009,09,23,15,30,24.20
2009,09,23,15,31,24.30
2009,09,23,15,32,24.30
2009,09,23,15,33,24.40
2009,09,23,15,34,24.40
2009,09,23,15,35,24.50
2009,09,23,15,36,24.60
2009,09,23,15,37,24.70
2009,09,23,15,38,24.70
2009,09,23,15,39,24.70
2009,09,23,15,40,24.80
2009,09,23,15,41,24.80
2009,09,23,15,42,24.70
2009,09,23,15,43,24.80
2009,09,23,15,44,24.70
2009,09,23,15,45,24.70
2009,09,23,15,46,24.70
2009,09,23,15,47,24.60
2009,09,23,15,48,24.60
2009,09,23,15,49,24.50
2009,09,23,15,50,24.30
2009,09,23,15,51,24.30
2009,09,23,15,52,24.30
2009,09,23,15,53,24.30
2009,09,23,15,54,24.30
2009,09,23,15,55,24.30
2009,09,23,15,56,24.30
2009,09,23,15,57,24.30
2009,09,23,15,58,24.30
2009,09,23,15,59,24.30
2009,09,23,16,00,24.30
2009,09,23,16,01,24.30
2009,09,23,16,02,24.20
2009,09,23,16,03,24.20
2009,09,23,16,04,24.20
2009,09,23,16,05,24.20
2009,09,23,16,06,24.20
2009,09,23,16,07,24.20
2009,09,23,16,08,24.20
2009,09,23,16,09,24.20
2009,09,23,16,10,24.20
2009,09,23,16,11,24.10
2009,09,23,16,12,24.10
2009,09,23,16,13,24.10
2009,09,23,16,14,24.10
2009,09,23,16,15,24.10
2009,09,23,16,16,23.90
2009,09,23,16,17,23.80
2009,09,23,16,18,23.80
2009,09,23,16,19,23.80
2009,09,23,16,20,23.90
2009,09,23,16,21,23.90
2009,09,23,16,22,23.90
2009,09,23,16,23,23.90
2009,09,23,16,24,23.90
2009,09,23,16,25,23.90
2009,09,23,16,26,23.90
2009,09,23,16,27,24.00
2009,09,23,16,28,24.00
2009,09,23,16,29,24.00
2009,09,23,16,30,24.00
2009,09,23,16,31,24.00
2009,09,23,16,32,24.10
2009,09,23,16,33,24.00
2009,09,23,16,34,24.00
2009,09,23,16,35,24.00
2009,09,23,16,36,24.00
2009,09,23,16,37,24.00
2009,09,23,16,38,23.90
2009,09,23,16,39,23.90
2009,09,23,16,40,23.80
2009,09,23,16,41,23.80
2009,09,23,16,42,23.80
2009,09,23,16,43,23.70
2009,09,23,16,44,23.70
2009,09,23,16,45,23.70
2009,09,23,16,46,23.60
2009,09,23,16,47,23.60
2009,09,23,16,48,23.60
2009,09,23,16,49,23.60
2009,09,23,16,50,23.60
2009,09,23,16,51,23.60
2009,09,23,16,52,23.60
2009,09,23,16,53,23.50
2009,09,23,16,54,23.30
2009,09,23,16,55,23.20
2009,09,23,16,56,23.20
2009,09,23,16,57,23.10
2009,09,23,16,58,23.20
2009,09,23,16,59,23.20
2009,09,23,17,00,23.20
2009,09,23,17,01,23.20
2009,09,23,17,02,23.20
2009,09,23,17,03,23.30
2009,09,23,17,04,23.30
2009,09,23,17,05,23.30
2009,09,23,17,06,23.20
2009,09,23,17,07,23.10
2009,09,23,17,08,23.10
2009,09,23,17,09,23.20
2009,09,23,17,10,23.10
2009,09,23,17,11,23.00
2009,09,23,17,12,22.90
2009,09,23,17,13,22.80
2009,09,23,17,14,22.90
2009,09,23,17,15,22.90
2009,09,23,17,16,22.80
2009,09,23,17,17,22.80
2009,09,23,17,18,22.70
2009,09,23,17,19,22.60
2009,09,23,17,20,22.60